HORIZONS 3E (43633 NORAD) Tracking and Keplerian Element Data

This shows tracking and keplerian element data for the satellite.

Feedback or suggestion? Click here.




ElementValue
Catalog43633
NameHORIZONS 3E
Epoch Orbit247
Epoch Day144.14844817
Epoch Year2019
RAAN113.2287
Inclination0.0463
Eccentricity5.37E-05
Argument of Perigee14.7897
Mean Anonmoly335.8886
Mean Motion1.00269146
Decay Rate-3.7E-07
L11 43633U 18074B 19144.14844817 -.00000037 00000-0 00000+0 0 9995
L22 43633 0.0463 113.2287 0000537 14.7897 335.8886 1.00269146 2472

Live tracking and technical data element details for HORIZONS 3E (NORAD 43633). HORIZONS 3E can be tracked NOW for your location showing map with azimuth and elevation plus other details from your city location.

Track the satellite on the map from your city or location and see movement details for azimuth, elevation, latitude, longitude, range, height, and movement on the map or in text.







IsCatalogInMostPopularTable: catalog: 43633, numindb: 141
Update: records affected: 1



GetName: 43633 HORIZONS 3E

Hit Count: updated at: Fri, 24 May 2019 21:04:03 GMT